TIME,DELAY(SENSOR),PRES,T(CTD),SAL,OXYGEN,RAWTEMP,T(OPTODE),TCPHASE,FLUOR,BETA(BETA700),BETA(BETA412),BETA(BETA440),CDOM,C(CSC),ED(ED411.90),ED(ED443.80),ED(ED489.40),ED(ED554.70),LU(LU412.20),LU(LU443.80),LU(LU489.40),LU(LU555.00),COMP,TILTX,TILTX(TILTY),CHECK
1352302711,5802,493.0499877929687500,17.4393997192382800,36.4547004699707000,232.3668060302734400,173.9759063720703000,17.4330501556396500,31.1140499114990230,50,98,64,63,60,13652,2146958500,2147515373,2147268260,2147464868,2147087533,2146953115,2147656896,2147127506,1184,-1,8,44916
1352302828,5803,481.8599853515625000,17.4745998382568360,36.4566001892089840,229.7218933105468800,172.7471008300781200,17.4701194763183600,31.2282390594482420,50,101,63,64,61,13652,2146960484,2147516909,2147265280,2147464283,2147087963,2146954139,2147655780,2147124434,3209,-1,8,60544
1352302943,5800,470.8800048828125000,17.5552997589111330,36.4719009399414060,229.6289062500000000,170.0276031494140600,17.5521793365478500,31.1958198547363280,50,101,65,63,60,13650,2146953362,2147515245,2147266870,2147462528,2147088356,2146952265,2147651922,2147126957,2052,-1,8,34993
1352303058,5806,460.0100097656250000,17.6417999267578120,36.4880981445312500,230.4642028808593800,167.1690979003906200,17.6384391784667970,31.1156406402587900,50,101,65,63,60,13651,2146958893,2147515090,2147265764,2147460324,2147087707,2146954898,2147652269,2147128054,944,-1,8,16661
1352303175,5804,449.0799865722656000,17.7233009338378900,36.5024986267089840,231.4752044677734400,164.3688049316406200,17.7229499816894530,31.0280990600585940,51,101,65,63,60,13651,2146955894,2147513197,2147267428,2147462610,2147081545,2146957174,2147651300,2147128201,2907,-1,8,24223
1352303290,5806,438.5400085449219000,17.7999992370605470,36.5159988403320300,232.4217071533203000,161.8627929687500000,17.7985992431640620,30.9479694366455080,50,99,65,64,59,13650,2146959981,2147516470,2147267968,2147460909,2147086043,2146954770,2147652928,2147130368,1588,-1,8,6077
1352303417,5806,427.0400085449219000,17.8796997070312500,36.5309982299804700,233.8148956298828000,159.3887939453125000,17.8732891082763670,30.8467407226562500,50,102,65,64,59,13649,2146958555,2147513929,2147265252,2147462208,2147085056,2146961801,2147651538,2147130669,526,-1,8,61393
1352303534,5807,416.5799865722656000,17.9342994689941400,36.5405006408691400,234.7341003417968800,157.5605926513672000,17.9284896850585940,30.7777996063232420,50,102,64,63,60,13651,2146958665,2147514889,2147267190,2147459456,2147083629,2146956160,2147651163,2147125147,2692,-1,8,9345
1352303661,5805,405.1000061035156000,17.9962005615234380,36.5503005981445300,235.1927947998047000,155.4055938720703000,17.9935607910156250,30.7265205383300780,50,100,64,63,60,13651,2146960804,2147516937,2147265490,2147458212,2147077586,2146959222,2147653531,2147127725,1384,-1,8,63085
1352303778,5805,394.4200134277344000,18.0284004211425780,36.5549011230468750,235.0861053466797000,154.4232940673828000,18.0232295989990230,30.7187690734863280,51,100,65,62,59,13650,2146957019,2147513627,2147268379,2147459620,2147088228,2146958838,2147652004,2147128457,320,-1,8,33507
1352303905,5804,382.7999877929687500,18.0816001892089840,36.5624008178710940,234.5809020996093800,152.8081970214843800,18.0720100402832030,30.7214794158935550,50,99,65,63,60,13649,2146957485,2147514761,2147266998,2147459657,2147085668,2146952905,2147655259,2147128411,2224,-1,8,2640
1352304020,5806,372.3399963378906000,18.1280002593994140,36.5670013427734400,233.8681030273437500,151.0834960937500000,18.1241092681884770,30.7328205108642580,50,100,64,63,60,13650,2146954304,2147511954,2147265216,2147458285,2147084425,2146955894,2147647616,2147129334,1043,-1,8,5580
1352304137,5807,361.6700134277344000,18.1653003692626950,36.5718994140625000,233.3874053955078000,149.9008941650390600,18.1598300933837900,30.7403202056884770,51,100,64,62,60,13649,2146959789,2147512466,2147267620,2147458358,2147081590,2146958390,2147649856,2147129142,3509,-1,8,16999
1352304264,5802,350.1499938964844000,18.2052993774414060,36.5732002258300800,232.3840026855468800,148.5924072265625000,18.1993598937988280,30.7716598510742200,50,101,64,64,59,13650,2146959926,2147515172,2147268306,2147457280,2147081636,2146955483,2147652754,2147130706,2066,-1,9,29639
1352304393,5806,338.6199951171875000,18.2758998870849600,36.5805015563964840,231.5883026123047000,146.2814941406250000,18.2691898345947270,30.7796096801757800,50,100,66,63,59,13648,2146955556,2147512146,2147262966,2147460260,2147083264,2146956004,2147652123,2147127835,861,-1,8,34562
1352304520,5807,327.5700073242187500,18.3292007446289060,36.5882987976074200,231.3034973144531200,144.4996032714843800,18.3230400085449220,30.7700004577636720,50,101,64,64,59,13646,2146957485,2147514313,2147265088,2147458294,2147086363,2146955958,2147650816,2147127149,3575,-1,8,37313
1352304647,5807,316.7500000000000000,18.3939990997314450,36.5915985107421900,230.2451934814453000,142.3244018554687500,18.3887805938720700,30.7927207946777340,50,102,65,65,61,13647,2146959012,2147512630,2147262747,2147458761,2147077522,2146957814,2147654317,2147129051,2723,-1,8,10477
1352304788,5808,305.4200134277344000,18.4654998779296880,36.5924987792968750,228.9528961181640600,139.9575958251953000,18.4603290557861330,30.8249492645263670,50,100,64,63,59,13644,2146955136,2147516534,2147263643,2147460690,2147076699,2146961389,2147657490,2147128914,1862,-1,8,37135
1352304927,5805,295.0499877929687500,18.5578994750976560,36.5974006652832000,228.1280059814453000,136.8280029296875000,18.5549507141113280,30.8239192962646500,50,99,64,64,60,13649,2146960000,2147510674,2147264182,2147458532,2147078171,2146960576,2147657590,2147126153,755,-1,8,28982
1352305073,5808,283.1099853515625000,18.6601009368896500,36.5890007019043000,228.3822021484375000,133.3159942626953000,18.6611595153808600,30.7646102905273440,50,101,66,63,59,13648,2146958080,2147515337,2147264338,2147453522,2147080813,2146960347,2147655232,2147130633,2684,-1,9,36001
1352305188,5805,271.9800109863281000,18.8101997375488280,36.5984992980957000,229.1699066162109400,128.5718994140625000,18.8046894073486330,30.6623897552490230,51,99,64,63,59,13650,2146957028,2147513526,2147262820,2147457472,2147082368,2146960182,2147652004,2147127561,1570,-1,8,64319
1352305303,5803,260.7300109863281000,18.9365997314453120,36.5976982116699200,230.3336029052734400,123.7398986816406200,18.9509296417236330,30.5412597656250000,51,100,65,64,59,13649,2146957668,2147516763,2147266459,2147455478,2147074605,2146965284,2147669577,2147128118,2116,-2,8,3755
1352305408,5804,250.5000000000000000,19.0713005065917970,36.6052017211914060,229.6522979736328000,119.9350967407226600,19.0661201477050780,30.5242195129394530,50,98,64,63,60,13649,2146957238,2147514166,2147264932,2147453952,2147081389,2146970294,2147678802,2147132553,1010,-1,9,37686
1352305523,5808,239.5700073242187500,19.1089992523193360,36.5742988586425800,236.1116943359375000,118.7404022216796900,19.1023006439209000,30.1968803405761720,51,98,64,62,59,13650,2146958592,2147513664,2147266770,2147454957,2147082066,2146972278,2147690971,2147128813,2708,-1,8,15714
1352305650,5803,227.8200073242187500,19.3048000335693360,36.5992012023925800,236.4985046386718800,112.3564987182617200,19.2957000732421880,30.0947608947753900,50,99,64,62,59,13650,2146960859,2147512192,2147267565,2147455177,2147085522,2146971200,2147672246,2147128777,2013,-1,9,51762
1352305767,5806,217.2400054931640600,19.4981994628906250,36.6381988525390600,227.4613952636718800,106.0374984741211000,19.4872493743896500,30.4486503601074220,50,100,65,64,59,13650,2146956434,2147514112,2147266797,2147456283,2147085796,2146991469,2147731126,2147136530,869,-1,8,33832
1352305894,5805,206.1699981689453000,19.6175003051757800,36.6288986206054700,233.2422943115234400,101.7664031982421900,19.6167907714843750,30.1113395690917970,51,101,64,63,59,13650,2146959012,2147514752,2147265947,2147452662,2147086793,2147003922,2147751734,2147135762,3172,-1,9,45042
1352305997,5803,197.5599975585937500,19.8696994781494140,36.6750984191894500,224.6714935302734400,93.9857482910156200,19.8529205322265620,30.4290504455566400,51,100,63,63,60,13646,2146955529,2147518299,2147268845,2147450596,2147089746,2147029458,2147796891,2147139840,2189,-2,9,37021
1352306071,5806,191.7799987792968800,19.9209995269775400,36.6563987731933600,230.5135955810547000,91.8462905883789000,19.9178791046142580,30.1131896972656250,51,100,65,64,59,13649,2146958180,2147515200,2147269430,2147449956,2147088393,2147039716,2147818861,2147140763,1670,-1,9,15066
1352306126,5806,187.8699951171875000,20.0501003265380860,36.6554985046386700,234.0950012207031200,87.1766433715820300,20.0597400665283200,29.8806591033935550,51,100,64,64,59,13645,2146958098,2147515894,2147265417,2147446509,2147087616,2147001051,2147720576,2147134089,1533,-1,9,40696
1352306181,5807,184.1199951171875000,20.3759994506835940,36.7187004089355500,224.8500976562500000,77.3410034179687500,20.3587703704834000,30.2021598815917970,51,99,64,62,60,13648,2146955492,2147513984,2147268918,2147447213,2147092672,2147030884,2147780032,2147137078,1842,-1,9,42959
1352306248,5806,179.6499938964843800,20.4090003967285160,36.7145004272460940,222.6251983642578000,75.5272674560546900,20.4139595031738280,30.2897605895996100,52,101,65,63,60,13647,2146952420,2147515730,2147268754,2147450852,2147097051,2147046738,2147809508,2147140672,1819,-2,9,60253
1352306303,5802,175.9700012207031200,20.4769992828369140,36.7246017456054700,221.4974060058593800,73.7816925048828100,20.4670791625976560,30.3239402770996100,51,102,65,63,62,13648,2146957165,2147514112,2147267574,2147446070,2147091035,2147034432,2147770368,2147138276,1543,-1,9,44037
1352306381,5809,171.2200012207031200,20.5743007659912100,36.7347984313964840,219.4976959228515600,70.6741027832031200,20.5616798400878900,30.3850498199462900,52,100,66,62,62,13647,2146958966,2147519780,2147273042,2147447094,2147102509,2147098541,2147918528,2147146532,1726,-2,9,1208
1352306460,5809,167.6799926757812500,20.6485004425048830,36.7417984008789060,218.3199005126953000,68.1877670288086000,20.6373996734619140,30.4129390716552730,51,101,64,63,60,13648,2146960374,2147515922,2147269595,2147448685,2147104082,2147113444,2147953746,2147148891,1691,-1,9,38130
1352306551,5805,163.9499969482422000,20.7525005340576170,36.7268981933593750,218.6531982421875000,65.0201034545898400,20.7339000701904300,30.3542308807373050,52,100,63,63,60,13644,2146958198,2147516077,2147276845,2147443510,2147107483,2147153947,2148028105,2147154742,1065,-1,9,11506
1352306668,5805,159.9400024414062500,20.9251995086669920,36.7274017333984400,226.6965942382812500,58.7585983276367200,20.9247703552246100,29.8696804046630860,53,102,64,63,59,13643,2146957540,2147515465,2147267611,2147445092,2147104822,2147104576,2147898322,2147141677,806,-2,8,9604
1352306795,5804,156.0000000000000000,21.1091003417968750,36.7481002807617200,225.2805938720703000,53.3760299682617200,21.0889892578125000,29.8696804046630860,54,101,64,63,60,13642,2146956333,2147519981,2147275977,2147447158,2147122742,2147225508,2148140041,2147162486,105,-1,9,24752
1352306922,5806,152.3099975585937500,21.3022003173828120,36.7658004760742200,221.1905975341797000,47.1801300048828100,21.2781791687011720,29.9932899475097660,54,102,64,64,59,13644,2146957705,2147519698,2147272146,2147443648,2147117193,2147168804,2148013174,2147152484,125,-1,9,16707
1352307057,5807,147.9600067138672000,21.3243007659912100,36.7299995422363300,224.9360046386718800,45.4943504333496100,21.3296794891357420,29.7849197387695300,55,102,64,64,61,13639,2146955913,2147522678,2147285522,2147442441,2147134546,2147292461,2148245046,2147166948,381,-2,9,3030
1352307172,5805,144.0500030517578000,21.5506992340087900,36.7196998596191400,233.1401977539062500,38.8306083679199200,21.5333995819091800,29.3038597106933600,61,104,64,63,60,13635,2146960237,2147526336,2147287158,2147442057,2147147373,2147353051,2148345773,2147175762,2472,-2,9,36579
1352307310,5802,138.9299926757812500,21.8882007598876950,36.7521018981933600,229.3441009521484400,27.8909091949462900,21.8683109283447270,29.3450908660888670,58,106,65,62,59,13635,2146958226,2147526034,2147290550,2147439478,2147163593,2147409837,2148423506,2147179062,2884,-2,9,73
1352307377,5806,135.4499969482422000,22.0655994415283200,36.7798004150390600,228.2722930908203000,21.8500995635986330,22.0534992218017580,29.3194904327392580,57,103,64,64,58,13637,2146959085,2147530788,2147291254,2147439003,2147177325,2147453321,2148482797,2147185819,2762,-2,9,62860
1352307456,5805,131.8399963378906200,22.1147003173828120,36.7821006774902340,229.2068939208984400,20.0456104278564450,22.1088504791259770,29.2515907287597660,57,101,64,64,59,13638,2146956918,2147528969,2147286683,2147438052,2147170907,2147402358,2148359414,2147175698,2039,-2,9,57824
1352307559,5805,127.7200012207031200,22.1781005859375000,36.7826004028320300,229.7879943847656200,17.8255100250244140,22.1769790649414060,29.1955795288085940,58,101,65,63,58,13632,2146958281,2147519414,2147269430,2147438829,2147142098,2147203017,2147961014,2147152100,1945,-2,9,51707
1352307664,5803,124.0100021362304700,22.2667999267578120,36.7733001708984400,228.8426055908203000,15.2343502044677730,22.2565307617187500,29.2079696655273440,59,107,65,64,60,13634,2146959003,2147521737,2147273444,2147436662,2147166089,2147275492,2148063753,2147161554,2022,-2,9,29073
1352307779,5803,120.0299987792968800,22.3521003723144530,36.7470016479492200,226.5655975341797000,12.2843103408813480,22.3471393585205080,29.2801208496093750,66,107,64,63,59,13627,2146964946,2147537252,2147306788,2147436873,2147278582,2147736539,2148843090,2147212708,1540,-1,9,8450
1352307941,5803,115.9800033569336000,22.5736007690429700,36.7126998901367200,226.6121063232422000,5.1373867988586430,22.5668506622314450,29.1871299743652340,71,109,65,63,58,13617,2146967497,2147543625,2147312009,2147437915,2147335972,2147903881,2149096557,2147233344,2128,-2,9,15415
1352308056,5805,111.9100036621093800,22.8638000488281250,36.6422004699707000,228.8162994384765600,-3.8096940517425537,22.8423099517822270,28.9682407379150400,72,109,66,64,57,13605,2146971218,2147548370,2147324726,2147432960,2147404873,2148081673,2149341933,2147248594,1557,-2,9,60286
1352308242,5806,107.6900024414062500,22.9039001464843750,36.6343002319335940,231.3818969726562500,-5.6876420974731445,22.9001808166503900,28.8230991363525400,71,109,64,64,59,13604,2146961042,2147530834,2147285787,2147432064,2147276589,2147514441,2148333988,2147184237,769,-1,9,31281
1352308345,5804,104.1399993896484400,23.1833000183105470,36.5732994079589840,233.2565002441406200,-14.3506002426147460,23.1674404144287100,28.6267108917236330,75,110,65,64,58,13592,2146974107,2147566473,2147356214,2147438043,2147584932,2148497353,2149891008,2147293677,966,-2,9,64210
1352308567,5808,100.2200012207031200,23.5303001403808600,36.4508018493652340,236.1250000000000000,-25.5396099090576170,23.5132999420166000,28.3547801971435550,73,112,64,65,58,13589,2146984758,2147579428,2147380361,2147432475,2147737856,2148813193,2150272667,2147322203,513,-2,9,39858
1352308622,5808,98.8799972534179700,23.5485000610351560,36.4458007812500000,237.9761047363281200,-26.2798690795898440,23.5362091064453120,28.2613601684570300,78,115,67,65,57,13572,2146983990,2147580717,2147370733,2147430546,2147764635,2148848192,2150298038,2147323648,3527,-1,9,38988
1352308701,5805,97.4000015258789000,23.5634002685546880,36.4385986328125000,239.5243988037109400,-26.9322109222412100,23.5564002990722660,28.1836795806884770,80,120,65,65,57,13578,2146988498,2147582747,2147375506,2147434752,2147816941,2148954925,2150421092,2147334144,3294,-2,9,48000
1352308851,5804,94.9800033569336000,23.6219005584716800,36.4121017456054700,240.9528961181640600,-28.7580394744873050,23.6129302978515620,28.0972805023193360,82,117,66,65,56,13569,2146994011,2147591341,2147384896,2147430710,2147935625,2149192685,2150725229,2147356013,2878,-2,9,55990
1352308906,5805,93.1600036621093800,23.6329994201660160,36.3714981079101560,242.2030029296875000,-29.1958808898925780,23.6264896392822270,28.0363292694091800,85,124,66,67,55,13546,2146994395,2147603593,2147390363,2147433993,2148029284,2149359908,2150944795,2147373595,2422,-1,9,36252
1352308973,5804,91.1299972534179700,23.6417007446289060,36.3679008483886700,243.2140045166015600,-29.4932804107666000,23.6357002258300780,27.9880104064941400,88,124,66,67,56,13542,2146978157,2147558537,2147317622,2147428269,2147621659,2148151862,2149066176,2147235410,2072,-1,9,18608
1352309040,5805,88.9300003051757800,23.6467990875244140,36.3692016601562500,243.8878021240234400,-29.7105407714843750,23.6424293518066400,27.9558200836181640,99,126,67,65,56,13539,2147011291,2147624841,2147435172,2147432548,2148395446,2150055917,2151853184,2147451584,1962,-1,9,51358
1352309095,5806,87.0999984741211000,23.6462001800537100,36.3689994812011700,244.0229034423828000,-29.7158508300781250,23.6425895690917970,27.9496803283691400,95,141,67,67,57,13535,2146988699,2147574747,2147336411,2147430198,2147838930,2148538806,2149547730,2147280100,1821,-1,9,17904
1352309173,5808,83.8399963378906200,23.6460990905761720,36.3698005676269500,244.0962982177734400,-29.7411193847656250,23.6433792114257800,27.9462699890136720,93,139,67,65,55,13537,2146993334,2147579684,2147357165,2147430902,2148010797,2148812114,2149861056,2147309522,1477,-1,9,21268
1352309228,5806,80.8499984741211000,23.6473999023437500,36.3695983886718750,244.1793060302734400,-29.8163604736328120,23.6457004547119140,27.9416103363037100,92,133,67,67,57,13528,2146998445,2147586870,2147359945,2147430089,2148114870,2148930660,2149951131,2147321883,1167,-2,9,2008
1352309283,5808,77.8099975585937500,23.6564006805419920,36.3689994812011700,244.2957000732422000,-30.1609706878662100,23.6563796997070300,27.9322395324707030,96,132,66,66,56,13521,2147020809,2147619629,2147427657,2147434230,2148609472,2149920576,2151274386,2147436388,1032,-1,9,27816
1352309338,5805,74.8199996948242200,23.6783008575439450,36.3703002929687500,244.2774963378906200,-30.6805400848388670,23.6724700927734380,27.9267101287841800,96,128,67,66,56,13531,2147088448,2147754514,2147674925,2147449417,2150241435,2153283757,2155907126,2147844324,643,-1,9,37498
1352309393,5804,71.8700027465820300,23.6765003204345700,36.3656997680664060,244.3395996093750000,-30.6898803710937500,23.6727600097656250,27.9237995147705080,98,134,67,66,55,13524,2147024905,2147623424,2147408960,2147434770,2148764662,2149944484,2151116150,2147448246,149,-1,9,28529
1352309448,5803,68.9199981689453100,23.6753997802734380,36.3661994934082000,244.5106964111328000,-30.6902694702148440,23.6727790832519530,27.9163494110107420,101,137,68,66,58,13526,2147016731,2147606994,2147390217,2147431506,2148616566,2149585700,2150625508,2147413988,3269,-1,9,52536
1352309505,5806,65.8700027465820300,23.6590995788574220,36.3600006103515600,244.5876007080078000,-30.1130695343017580,23.6548995971679700,27.9200801849365230,100,128,66,66,56,13526,2147013641,2147603382,2147376466,2147430948,2148517330,2149365677,2150359762,2147391552,2872,-1,9,57508
1352309560,5809,62.9500007629394500,23.6452007293701170,36.3538017272949200,244.7138061523437500,-29.7306995391845700,23.6430492401123050,27.9193897247314450,100,127,67,66,56,13518,2147025490,2147617993,2147397174,2147432393,2148771721,2149758665,2150810011,2147449289,2707,-1,9,13748
1352309615,5800,60.0600013732910160,23.6420993804931640,36.3531990051269500,245.0218963623047000,-29.6617507934570300,23.6409206390380860,27.9067096710205080,101,131,66,66,57,13521,2147052891,2147652187,2147442386,2147440109,2149469202,2150790637,2151939721,2147590235,2989,-1,9,36323
1352309670,5802,57.0200004577636700,23.6394004821777340,36.3510017395019500,245.1705017089843800,-29.5274105072021500,23.6367492675781250,27.9018802642822270,101,125,67,64,55,13512,2147084525,2147691821,2147496987,2147447469,2150263716,2151896749,2153095232,2147748004,2833,-1,9,27506
1352309725,5806,53.9599990844726560,23.6462001800537100,36.3474998474121100,245.3105926513672000,-30.2754402160644530,23.6599292755126950,27.8866596221923830,103,135,67,67,55,13501,2147112009,2147728219,2147536036,2147449270,2150906075,2152757485,2153980937,2147881901,2567,-2,9,7052
1352309866,5806,47.3899993896484400,23.8055000305175780,36.3268013000488300,244.5036926269531200,-34.7498703002929700,23.7985897064209000,27.8667507171630860,105,132,69,67,57,13487,2147256164,2147911314,2147777874,2147485906,2154479286,2157893010,2159602697,2148753033,2943,-2,9,52022
1352309902,5805,45.4700012207031250,23.8568000793457030,36.3176994323730500,243.9985046386718800,-36.4721298217773440,23.8519992828369140,27.8675403594970700,103,134,67,66,57,13479,2147283766,2147939611,2147809033,2147492096,2155125092,2158573659,2160168192,2148899437,2828,-2,8,45090
1352309935,5807,43.6899986267089840,23.9048004150390620,36.3078002929687500,243.7407989501953000,-37.8670005798339840,23.8952693939209000,27.8615703582763670,107,130,68,67,55,13484,2147299492,2147950336,2147819794,2147493650,2155448182,2158811849,2160243437,2148958573,2503,-2,9,17392
1352309980,5805,41.5800018310546900,23.9556999206542970,36.2997016906738300,243.5717010498047000,-39.3110389709472660,23.9400806427001950,27.8513298034667970,104,135,68,67,55,13469,2147338313,2147990656,2147852160,2147497600,2156289865,2159738066,2161020992,2149121179,2304,-2,8,59692
1352310025,5806,39.8300018310546900,23.9939994812011720,36.2948989868164060,243.1367034912109400,-41.0399894714355500,23.9937496185302730,27.8490104675292970,101,138,67,66,55,13470,2147416036,2148088356,2147966592,2147507282,2158191606,2162265133,2163645613,2149583643,2097,-2,9,1168
1352310094,5808,37.5900001525878900,24.0230007171630860,36.2925987243652340,242.8367004394531200,-41.8661117553710940,24.0193996429443360,27.8520107269287100,102,135,66,66,56,13469,2147542802,2148243858,2148158985,2147535003,2161184082,2166139876,2167667629,2150331574,1676,-2,9,37830
1352310151,5808,35.8499984741210940,24.0618991851806640,36.2887001037597660,242.6313018798828000,-43.1146316528320300,24.0581798553466800,27.8456497192382800,102,140,67,67,55,13474,2147999140,2148894171,2149056219,2147645476,2172024027,2182981878,2187911707,2153647497,1799,-1,10,52908
1352310233,5805,33.4399986267089840,24.1047000885009770,36.2841987609863300,242.2993927001953000,-44.9250106811523440,24.1144199371337900,27.8380107879638670,99,138,68,67,54,13474,2148356187,2149342098,2149672018,2147799003,2179541211,2192686436,2198049426,2155996544,1473,-1,9,38005
1352310278,5808,31.4300003051757800,24.1373996734619140,36.2816009521484400,242.0451049804687500,-45.5735206604003900,24.1345806121826170,27.8411598205566400,95,136,68,67,57,13474,2148529508,2149530816,2149856009,2147845037,2184037650,2197974893,2202952941,2157700416,1572,0,9,19290
1352310311,5804,29.8299999237060550,24.1473007202148440,36.2803001403808600,241.8894042968750000,-46.0469703674316400,24.1492900848388670,27.8423309326171880,91,145,69,67,55,13477,2148737536,2149783808,2150189750,2147938496,2188593792,2203954340,2209133211,2159125997,1492,-1,8,26286
1352310344,5806,28.1399993896484380,24.1424007415771500,36.2807006835937500,241.9548034667968800,-45.7009811401367200,24.1385402679443360,27.8437099456787100,90,137,68,68,56,13471,2148464557,2149359305,2149612452,2147917833,2182982290,2194545819,2197277348,2157089691,1337,-1,8,52380
1352310377,5808,26.1800003051757800,24.1345996856689450,36.2821998596191400,242.0509948730468800,-45.5988006591796900,24.1353607177734380,27.8405208587646500,92,135,68,67,55,13477,2147920859,2148580598,2148492672,2147707072,2169968448,2174570861,2173667373,2152542089,1353,-2,8,12228
